| time (UTC) | temp C | wind direction | speed KPH | gust KPH | rain 1hr cm | rain 24hr cm | rain mn cm | humidity % | barometer mb |
| 20260906171521 | 34 | 41 | 4.8 | 16.1 | 0.00 | 0.00 | 0.00 | 60 | 1013.6 |
| 20260906170014 | 33 | 335 | 0.0 | 6.4 | 0.00 | 0.00 | 0.00 | 65 | 1013.8 |
| 20260906163011 | 33 | 16 | 0.0 | 0.0 | 0.00 | 0.00 | 0.00 | 67 | 1014.1 |
| 20260906161502 | 33 | 48 | 0.0 | 0.0 | 0.00 | 0.00 | 0.00 | 66 | 1014.1 |
| 20260906160058 | 33 | 51 | 0.0 | 1.6 | 0.00 | 0.00 | 0.00 | 67 | 1014.2 |
| 20260906154553 | 32 | 23 | 0.0 | 0.0 | 0.00 | 0.00 | 0.00 | 70 | 1014.1 |
| 20260906153054 | 31 | 36 | 0.0 | 0.0 | 0.00 | 0.00 | 0.00 | 71 | 1014.1 |
| 20260906151548 | 31 | 38 | 0.0 | 9.7 | 0.00 | 0.00 | 0.00 | 73 | 1014.1 |
| 20260906150050 | 30 | 11 | 0.0 | 6.4 | 0.00 | 0.00 | 0.00 | 73 | 1014.0 |
| 20260906144545 | 30 | 16 | 0.0 | 0.0 | 0.00 | 0.00 | 0.00 | 73 | 1014.1 |
| 20260906143040 | 30 | 56 | 0.0 | 0.0 | 0.00 | 0.00 | 0.00 | 73 | 1014.1 |
| 20260906141539 | 29 | 58 | 0.0 | 1.6 | 0.00 | 0.00 | 0.00 | 76 | 1014.1 |
| 20260906140137 | 28 | 35 | 0.0 | 4.8 | 0.00 | 0.00 | 0.00 | 77 | 1014.2 |
| 20260906134527 | 28 | 65 | 0.0 | 6.4 | 0.00 | 0.00 | 0.00 | 77 | 1014.1 |
| 20260906133149 | 28 | 56 | 0.0 | 6.4 | 0.00 | 0.00 | 0.00 | 78 | 1014.2 |
| 20260906131517 | 27 | 13 | 0.0 | 4.8 | 0.00 | 0.00 | 0.00 | 80 | 1014.1 |
| 20260906121542 | 25 | 42 | 0.0 | 0.0 | 0.00 | 0.00 | 0.00 | 90 | 1013.3 |
| 20260906120033 | 24 | 236 | 0.0 | 0.0 | 0.00 | 0.00 | 0.00 | 93 | 1013.2 |
| 20260906114554 | 23 | 238 | 0.0 | 0.0 | 0.00 | 0.00 | 0.00 | 94 | 1013.1 |
| 20260906113038 | 23 | 238 | 0.0 | 0.0 | 0.00 | 0.00 | 0.00 | 94 | 1013.0 |
| 20260906111517 | 23 | 238 | 0.0 | 0.0 | 0.00 | 0.00 | 0.00 | 94 | 1012.9 |
| 20260906110019 | 23 | 238 | 0.0 | 0.0 | 0.00 | 0.00 | 0.00 | 94 | 1012.9 |
| 20260906104525 | 23 | 238 | 0.0 | 0.0 | 0.00 | 0.00 | 0.00 | 94 | 1012.9 |
| 20260906103013 | 23 | 238 | 0.0 | 0.0 | 0.00 | 0.00 | 0.00 | 93 | 1012.9 |
| 20260906101512 | 23 | 238 | 0.0 | 0.0 | 0.00 | 0.00 | 0.00 | 93 | 1012.8 |
| 20260906100016 | 23 | 238 | 0.0 | 0.0 | 0.00 | 0.00 | 0.00 | 93 | 1012.7 |
| 20260906094508 | 24 | 238 | 0.0 | 0.0 | 0.00 | 0.00 | 0.00 | 93 | 1012.5 |
| 20260906093007 | 24 | 238 | 0.0 | 0.0 | 0.00 | 0.00 | 0.00 | 92 | 1012.3 |
| 20260906091510 | 24 | 238 | 0.0 | 0.0 | 0.00 | 0.00 | 0.00 | 92 | 1012.2 |
| 20260906090006 | 24 | 238 | 0.0 | 0.0 | 0.00 | 0.00 | 0.00 | 92 | 1012.2 |
| 20260906084502 | 24 | 238 | 0.0 | 0.0 | 0.00 | 0.00 | 0.00 | 91 | 1012.0 |
| 20260906083100 | 24 | 238 | 0.0 | 0.0 | 0.00 | 0.00 | 0.00 | 91 | 1011.9 |
| 20260906081614 | 24 | 238 | 0.0 | 0.0 | 0.00 | 0.00 | 0.00 | 91 | 1011.9 |
| 20260906074611 | 24 | 228 | 0.0 | 0.0 | 0.00 | 0.00 | 0.00 | 90 | 1011.8 |
| 20260906073054 | 25 | 229 | 0.0 | 0.0 | 0.00 | 0.00 | 0.00 | 90 | 1011.8 |
| 20260906071555 | 25 | 229 | 0.0 | 0.0 | 0.00 | 0.00 | 0.00 | 89 | 1011.9 |
| 20260906070052 | 25 | 229 | 0.0 | 0.0 | 0.00 | 0.00 | 0.00 | 89 | 1012.0 |
| 20260906064550 | 25 | 229 | 0.0 | 0.0 | 0.00 | 0.00 | 0.00 | 88 | 1012.1 |
| 20260906063047 | 25 | 229 | 0.0 | 0.0 | 0.00 | 0.00 | 0.00 | 88 | 1012.3 |
| 20260906061545 | 25 | 218 | 0.0 | 0.0 | 0.00 | 0.00 | 0.00 | 88 | 1012.2 |
| 20260906060044 | 25 | 218 | 0.0 | 0.0 | 0.00 | 0.00 | 0.00 | 87 | 1012.3 |
| 20260906054543 | 25 | 218 | 0.0 | 0.0 | 0.00 | 0.00 | 0.00 | 86 | 1012.4 |
| 20260906053040 | 26 | 218 | 0.0 | 0.0 | 0.00 | 0.00 | 0.00 | 85 | 1012.3 |
| 20260906051546 | 26 | 218 | 0.0 | 0.0 | 0.00 | 0.00 | 0.00 | 85 | 1012.3 |
| 20260906050045 | 26 | 218 | 0.0 | 0.0 | 0.00 | 0.00 | 0.00 | 84 | 1012.3 |
| 20260906044538 | 26 | 218 | 0.0 | 0.0 | 0.00 | 0.00 | 0.00 | 82 | 1012.4 |
| 20260906043035 | 26 | 218 | 0.0 | 0.0 | 0.00 | 0.00 | 0.00 | 81 | 1012.4 |
| 20260906041536 | 27 | 218 | 0.0 | 0.0 | 0.00 | 0.00 | 0.00 | 81 | 1012.4 |
| 20260906040034 | 27 | 218 | 0.0 | 0.0 | 0.00 | 0.00 | 0.00 | 79 | 1012.3 |
| 20260906034535 | 27 | 218 | 0.0 | 0.0 | 0.00 | 0.00 | 0.00 | 79 | 1012.1 |
| 20260906033044 | 27 | 218 | 0.0 | 0.0 | 0.00 | 0.00 | 0.00 | 77 | 1011.8 |
| 20260906031533 | 27 | 218 | 0.0 | 0.0 | 0.00 | 0.00 | 0.00 | 77 | 1011.9 |
| 20260906030032 | 27 | 337 | 0.0 | 0.0 | 0.00 | 0.00 | 0.00 | 78 | 1011.7 |
| 20260906024532 | 28 | 2 | 0.0 | 0.0 | 0.00 | 0.00 | 0.00 | 76 | 1011.6 |
| 20260906023035 | 28 | 3 | 0.0 | 0.0 | 0.00 | 0.00 | 0.00 | 75 | 1011.4 |
| 20260906021531 | 28 | 3 | 0.0 | 0.0 | 0.00 | 0.00 | 0.00 | 74 | 1011.2 |
| 20260906020031 | 30 | 3 | 0.0 | 0.0 | 0.00 | 0.00 | 0.00 | 71 | 1010.9 |
| 20260906014532 | 30 | 3 | 0.0 | 0.0 | 0.00 | 0.00 | 0.00 | 66 | 1010.6 |
| 20260906013029 | 31 | 3 | 0.0 | 0.0 | 0.00 | 0.00 | 0.00 | 64 | 1010.6 |
| 20260906011535 | 32 | 3 | 0.0 | 0.0 | 0.00 | 0.00 | 0.00 | 61 | 1010.4 |
| 20260906010031 | 33 | 3 | 0.0 | 0.0 | 0.00 | 0.00 | 0.00 | 57 | 1010.3 |
| 20260906004527 | 33 | 3 | 0.0 | 0.0 | 0.00 | 0.00 | 0.00 | 53 | 1010.2 |
| 20260906003027 | 34 | 3 | 0.0 | 4.8 | 0.00 | 0.00 | 0.00 | 52 | 1010.2 |
| 20260906001526 | 35 | 63 | 0.0 | 6.4 | 0.00 | 0.00 | 0.00 | 51 | 1010.2 |
| 20260906000026 | 35 | 8 | 0.0 | 8.0 | 0.00 | 0.00 | 0.00 | 49 | 1010.2 |
| 20260905234525 | 35 | 17 | 1.6 | 12.9 | 0.00 | 0.00 | 0.00 | 48 | 1010.1 |
| 20260905233024 | 36 | 323 | 1.6 | 9.7 | 0.00 | 0.00 | 0.00 | 47 | 1010.1 |
| 20260905231525 | 36 | 15 | 0.0 | 6.4 | 0.00 | 0.00 | 0.00 | 45 | 1010.0 |
| 20260905230028 | 36 | 29 | 0.0 | 14.5 | 0.00 | 0.00 | 0.00 | 45 | 1009.9 |
| 20260905224532 | 37 | 24 | 0.0 | 8.0 | 0.00 | 0.00 | 0.00 | 44 | 1010.0 |
| 20260905223022 | 37 | 33 | 0.0 | 9.7 | 0.00 | 0.00 | 0.00 | 44 | 1010.0 |
| 20260905221521 | 37 | 64 | 0.0 | 6.4 | 0.00 | 0.00 | 0.00 | 43 | 1010.0 |
| 20260905220020 | 37 | 6 | 0.0 | 8.0 | 0.00 | 0.00 | 0.00 | 43 | 1010.1 |
| 20260905214519 | 37 | 68 | 0.0 | 9.7 | 0.00 | 0.00 | 0.00 | 43 | 1010.1 |
| 20260905213018 | 37 | 41 | 1.6 | 12.9 | 0.00 | 0.00 | 0.00 | 42 | 1010.2 |
| 20260905211516 | 37 | 333 | 0.0 | 11.3 | 0.00 | 0.00 | 0.00 | 43 | 1010.4 |
| 20260905210013 | 38 | 21 | 0.0 | 3.2 | 0.00 | 0.00 | 0.00 | 41 | 1010.6 |
| 20260905204517 | 37 | 51 | 0.0 | 6.4 | 0.00 | 0.00 | 0.00 | 42 | 1010.7 |
| 20260905203010 | 38 | 13 | 0.0 | 6.4 | 0.00 | 0.00 | 0.00 | 42 | 1010.9 |
| 20260905201508 | 38 | 22 | 0.0 | 8.0 | 0.00 | 0.00 | 0.00 | 41 | 1011.1 |
| 20260905200006 | 37 | 29 | 3.2 | 14.5 | 0.00 | 0.00 | 0.00 | 42 | 1011.2 |
| 20260905194503 | 38 | 45 | 0.0 | 1.6 | 0.00 | 0.00 | 0.00 | 43 | 1011.5 |
| 20260905193100 | 38 | 352 | 0.0 | 6.4 | 0.00 | 0.00 | 0.00 | 42 | 1011.7 |
| 20260905191558 | 38 | 18 | 0.0 | 1.6 | 0.00 | 0.00 | 0.00 | 41 | 1011.9 |
| 20260905190056 | 37 | 157 | 0.0 | 4.8 | 0.00 | 0.00 | 0.00 | 45 | 1012.0 |
| 20260905184600 | 38 | 25 | 0.0 | 9.7 | 0.00 | 0.00 | 0.00 | 42 | 1012.2 |
| 20260905183056 | 38 | 155 | 0.0 | 0.0 | 0.00 | 0.00 | 0.00 | 44 | 1012.5 |
| 20260905181603 | 38 | 57 | 0.0 | 0.0 | 0.00 | 0.00 | 0.00 | 43 | 1012.8 |
| 20260905180046 | 38 | 4 | 0.0 | 0.0 | 0.00 | 0.00 | 0.00 | 45 | 1013.0 |
| 20260905174549 | 37 | 66 | 0.0 | 1.6 | 0.00 | 0.00 | 0.00 | 49 | 1013.2 |
| 20260905173041 | 37 | 85 | 0.0 | 0.0 | 0.00 | 0.00 | 0.00 | 49 | 1013.3 |